Regional Weather Roundup
Issued by NWS

Home | Current Version | Previous Version | Text Only | Print | Product List | Glossary On
Versions: 1 2 3 4 5 6 7 8 9 10 11 12 13 14 15 16 17 18 19 20 21 22 23 24 25 26 27 28 29 30 31 32 33 34 35 36 37 38 39 40 41 42 43 44 45 46 47 48 49 50
000
ASUS44 KBMX 300210
RWRAL

ALABAMA REGIONAL WEATHER ROUNDUP
NATIONAL WEATHER SERVICE BIRMINGHAM AL
900 PM CDT FRI MAY 29 2015

NOTE: "FAIR" INDICATES FEW OR NO CLOUDS BELOW 12,000 FEET
WITH NO SIGNIFICANT WEATHER AND/OR OBSTRUCTIONS TO VISIBILITY.

THE REMARK "TC" DENOTES TEMPERATURE IN DEGREES CELSIUS.

ALZ001>011-014-016>018-020-300300-
NORTH ALABAMA

CITY           SKY/WX    TMP DP  RH WIND       PRES   REMARKS
MUSCLE SHOALS  CLEAR     73  68  84 SE6       30.08S
HUNTSVILLE     PTCLDY    75  66  73 SE5       30.10R
DECATUR        PTCLDY    71  67  87 E5        30.10S
HALEYVILLE     FAIR      72  69  90 CALM      30.12S
GADSDEN        MOCLDY   N/A N/A N/A CALM      30.11R
$$

ALZ012-013-022-023-030>036-040>044-300300-
WEST CENTRAL ALABAMA

CITY           SKY/WX    TMP DP  RH WIND       PRES   REMARKS
TUSCALOOSA     PTCLDY    77  67  71 CALM      30.08R
$$

ALZ015-024>027-033>036-040>044-300300-
CENTRAL ALABAMA

CITY           SKY/WX    TMP DP  RH WIND       PRES   REMARKS
BIRMINGHAM     PTCLDY    73  68  84 CALM      30.13R
MONTGOMERY     CLEAR     76  65  68 CALM      30.10R
SHELBY CO ARPT CLEAR     73  69  87 CALM      30.11R
MAXWELL AFB    CLEAR     76  67  74 S2        30.09R
GREENVILLE     FAIR      75  63  66 SE3       30.10R
$$

ALZ019-021-028-029-037-038-045>048-300300-
EAST CENTRAL ALABAMA

CITY           SKY/WX    TMP DP  RH WIND       PRES   REMARKS
ANNISTON       PTCLDY    72  69  90 CALM      30.13R
ALEXANDER CITY CLEAR     72  66  81 CALM      30.13R
AUBURN         CLEAR     73  57  56 E3        30.14R
$$

ALZ051>064-300300-
SOUTHWEST ALABAMA

CITY           SKY/WX    TMP DP  RH WIND       PRES   REMARKS
MOBILE         PTCLDY    76  71  85 SE6       30.08S
BROOKLEY FIELD CLEAR     79  69  71 SE8       30.09R
EVERGREEN      PTCLDY    74  69  85 CALM      30.10R
$$

ALZ049-050-065>069-300300-
SOUTHEAST ALABAMA

CITY           SKY/WX    TMP DP  RH WIND       PRES   REMARKS
DOTHAN         CLEAR     75  67  76 CALM      30.13S
OZARK          CLEAR     77  64  64 E3        30.10R
TROY           CLEAR     73  65  75 CALM      30.11R
EUFAULA        FAIR      70  67  90 CALM      30.09S
$$


USA.gov is the U.S. government's official web portal to all federal, state and local government web resources and services.